Powrót do katalogu

TAIJING-4 02A

AktywnyNaukaSSO
NORAD 64087·PAYLOAD·🇨🇳 China
Ta nazwa satelity nie została jeszcze potwierdzona przez oficjalne źródła.

Wystrzelony May 21, 2025 z Jiuquan Satellite Launch Center

Loading…

Następne Przeloty (najbliższe 24 godziny)

TLE

ŚwieżeSource: Space-Track

Epoka: Sep 14, 2026, 22:47 UTC

1 64087U 25108A   26257.94985606  .00004573  00000-0  23530-3 0  9995
2 64087  97.4695 331.3708 0002734  23.9819 336.1542 15.16923253 72921

Śledź TAIJING-4 02A w czasie rzeczywistym z AllMySat

Download on the App Store